Total_Precipitation_Accumulation
0.02 0.03 0.04 0.06 0.08 0.10 0.13 0.16 0.18 0.18 0.20 0.23 0.29 0.33 0.34 0.41 0.58 0.74 0.73 0.65 0.70 0.77 0.83 0.89 0.87 0.84 0.78 0.65 0.60 0.56 0.58 0.63 0.56 0.40 0.32 0.32 0.29 0.23 0.19 0.14 0.09 0.07 0.06
0.02 0.02 0.03 0.04 0.06 0.07 0.09 0.12 0.16 0.18 0.17 0.16 0.19 0.23 0.26 0.32 0.47 0.78 0.95 0.97 0.94 0.86 0.89 1.00 1.03 0.93 0.77 0.65 0.59 0.55 0.55 0.60 0.53 0.36 0.31 0.29 0.27 0.26 0.22 0.17 0.11 0.07 0.06
0.01 0.02 0.02 0.02 0.03 0.05 0.06 0.09 0.13 0.15 0.16 0.16 0.17 0.21 0.26 0.27 0.34 0.54 0.76 0.88 0.90 0.86 0.91 0.93 0.92 0.93 0.82 0.69 0.55 0.48 0.47 0.56 0.51 0.36 0.31 0.29 0.28 0.28 0.24 0.20 0.15 0.12 0.07
0.00 0.01 0.01 0.01 0.02 0.04 0.05 0.08 0.11 0.13 0.15 0.17 0.21 0.25 0.26 0.23 0.25 0.37 0.52 0.61 0.67 0.72 0.77 0.81 0.82 0.82 0.82 0.77 0.64 0.51 0.45 0.43 0.39 0.33 0.30 0.32 0.31 0.30 0.25 0.21 0.18 0.13 0.08
0.02 0.04 0.03 0.03 0.03 0.03 0.05 0.07 0.08 0.09 0.10 0.15 0.22 0.24 0.21 0.19 0.25 0.37 0.40 0.36 0.40 0.46 0.49 0.51 0.61 0.75 0.81 0.81 0.70 0.57 0.49 0.40 0.35 0.32 0.29 0.31 0.33 0.34 0.27 0.18 0.15 0.12 0.09
0.07 0.09 0.07 0.08 0.08 0.07 0.08 0.09 0.09 0.10 0.12 0.15 0.17 0.20 0.19 0.17 0.23 0.26 0.24 0.21 0.22 0.26 0.29 0.28 0.30 0.43 0.59 0.69 0.68 0.60 0.51 0.43 0.37 0.33 0.31 0.30 0.29 0.26 0.21 0.17 0.13 0.09 0.10
0.06 0.11 0.11 0.12 0.11 0.09 0.08 0.09 0.10 0.13 0.16 0.18 0.19 0.20 0.21 0.21 0.18 0.14 0.11 0.11 0.13 0.17 0.20 0.19 0.17 0.20 0.31 0.41 0.49 0.52 0.47 0.39 0.34 0.35 0.35 0.30 0.27 0.22 0.17 0.18 0.16 0.12 0.09
0.04 0.10 0.15 0.17 0.15 0.13 0.14 0.15 0.16 0.18 0.20 0.23 0.24 0.26 0.28 0.28 0.21 0.14 0.10 0.09 0.11 0.15 0.16 0.14 0.14 0.15 0.19 0.23 0.31 0.39 0.42 0.37 0.29 0.27 0.28 0.29 0.27 0.22 0.17 0.18 0.18 0.15 0.11
0.07 0.11 0.16 0.23 0.24 0.22 0.23 0.25 0.27 0.28 0.27 0.26 0.27 0.29 0.33 0.36 0.27 0.19 0.14 0.12 0.15 0.16 0.17 0.15 0.13 0.11 0.12 0.15 0.20 0.25 0.30 0.34 0.33 0.28 0.25 0.26 0.27 0.23 0.17 0.13 0.13 0.11 0.09
0.11 0.15 0.21 0.28 0.32 0.31 0.31 0.34 0.35 0.37 0.35 0.32 0.30 0.30 0.34 0.41 0.36 0.25 0.19 0.17 0.21 0.22 0.22 0.19 0.16 0.12 0.10 0.10 0.14 0.18 0.20 0.21 0.24 0.25 0.23 0.21 0.20 0.19 0.16 0.11 0.09 0.07 0.06
0.21 0.23 0.27 0.33 0.38 0.37 0.37 0.38 0.40 0.41 0.41 0.41 0.39 0.35 0.36 0.44 0.44 0.31 0.25 0.25 0.28 0.29 0.25 0.23 0.19 0.14 0.11 0.09 0.10 0.14 0.15 0.17 0.19 0.21 0.23 0.23 0.22 0.21 0.16 0.12 0.11 0.08 0.06
0.30 0.31 0.34 0.39 0.40 0.39 0.47 0.51 0.55 0.55 0.52 0.49 0.53 0.49 0.43 0.45 0.45 0.36 0.28 0.26 0.33 0.38 0.35 0.28 0.24 0.19 0.14 0.13 0.11 0.12 0.14 0.16 0.20 0.21 0.22 0.22 0.21 0.20 0.18 0.15 0.12 0.10 0.07
0.29 0.31 0.36 0.44 0.48 0.49 0.53 0.56 0.64 0.67 0.65 0.61 0.61 0.64 0.58 0.53 0.52 0.43 0.33 0.27 0.33 0.42 0.45 0.42 0.33 0.28 0.23 0.19 0.18 0.17 0.15 0.14 0.17 0.20 0.20 0.17 0.14 0.14 0.14 0.16 0.17 0.12 0.08
0.34 0.35 0.38 0.43 0.49 0.57 0.64 0.63 0.65 0.69 0.71 0.71 0.67 0.62 0.61 0.59 0.61 0.51 0.41 0.31 0.35 0.47 0.53 0.52 0.44 0.39 0.35 0.30 0.28 0.25 0.19 0.16 0.16 0.17 0.19 0.18 0.17 0.14 0.12 0.12 0.13 0.12 0.08
0.38 0.37 0.40 0.44 0.49 0.59 0.69 0.70 0.65 0.67 0.72 0.70 0.63 0.56 0.55 0.54 0.61 0.59 0.47 0.42 0.47 0.57 0.65 0.68 0.61 0.53 0.49 0.43 0.37 0.32 0.29 0.25 0.22 0.20 0.21 0.21 0.20 0.18 0.13 0.09 0.09 0.07 0.05
0.41 0.38 0.41 0.44 0.49 0.56 0.65 0.69 0.59 0.51 0.52 0.53 0.46 0.40 0.36 0.37 0.49 0.54 0.50 0.47 0.52 0.61 0.73 0.77 0.68 0.58 0.52 0.48 0.43 0.39 0.37 0.32 0.29 0.25 0.21 0.21 0.19 0.18 0.15 0.11 0.07 0.06 0.04
0.49 0.43 0.45 0.45 0.47 0.50 0.56 0.64 0.66 0.54 0.43 0.39 0.31 0.23 0.21 0.24 0.37 0.48 0.55 0.54 0.54 0.56 0.65 0.70 0.63 0.57 0.51 0.49 0.46 0.41 0.37 0.36 0.35 0.32 0.25 0.22 0.20 0.16 0.14 0.11 0.08 0.05 0.04
0.67 0.56 0.46 0.43 0.46 0.50 0.52 0.57 0.65 0.67 0.60 0.45 0.29 0.19 0.17 0.21 0.32 0.46 0.59 0.58 0.59 0.56 0.56 0.59 0.55 0.52 0.49 0.50 0.47 0.45 0.40 0.39 0.40 0.38 0.30 0.25 0.22 0.16 0.12 0.10 0.07 0.05 0.04
0.60 0.63 0.54 0.47 0.49 0.52 0.53 0.55 0.60 0.64 0.70 0.66 0.45 0.25 0.18 0.24 0.35 0.49 0.60 0.56 0.55 0.52 0.50 0.49 0.48 0.47 0.47 0.48 0.48 0.47 0.45 0.42 0.39 0.37 0.33 0.26 0.23 0.19 0.13 0.09 0.08 0.07 0.04
0.45 0.44 0.44 0.50 0.52 0.54 0.56 0.55 0.58 0.65 0.70 0.69 0.55 0.33 0.19 0.21 0.27 0.43 0.54 0.55 0.51 0.45 0.43 0.41 0.42 0.43 0.43 0.43 0.44 0.45 0.47 0.44 0.38 0.35 0.33 0.26 0.21 0.18 0.13 0.09 0.08 0.06 0.04
0.46 0.40 0.30 0.39 0.48 0.51 0.55 0.59 0.59 0.62 0.65 0.64 0.52 0.31 0.19 0.17 0.23 0.33 0.44 0.48 0.43 0.41 0.39 0.37 0.38 0.37 0.36 0.35 0.36 0.37 0.40 0.40 0.36 0.32 0.28 0.23 0.19 0.16 0.12 0.09 0.07 0.06 0.04
0.49 0.48 0.34 0.35 0.44 0.47 0.51 0.60 0.61 0.58 0.57 0.57 0.46 0.28 0.21 0.23 0.28 0.35 0.43 0.43 0.39 0.37 0.34 0.34 0.34 0.30 0.27 0.26 0.27 0.28 0.31 0.31 0.28 0.26 0.22 0.20 0.16 0.13 0.10 0.08 0.06 0.05 0.04
0.42 0.47 0.37 0.33 0.39 0.35 0.39 0.52 0.55 0.53 0.53 0.52 0.40 0.28 0.25 0.31 0.36 0.40 0.43 0.42 0.36 0.34 0.30 0.30 0.27 0.23 0.21 0.20 0.21 0.21 0.22 0.21 0.18 0.17 0.15 0.14 0.12 0.09 0.07 0.05 0.04 0.03 0.03
0.36 0.44 0.36 0.27 0.29 0.32 0.35 0.40 0.45 0.45 0.43 0.42 0.34 0.25 0.24 0.30 0.33 0.34 0.36 0.34 0.30 0.29 0.26 0.21 0.18 0.15 0.15 0.16 0.16 0.15 0.14 0.14 0.13 0.11 0.09 0.08 0.08 0.06 0.05 0.03 0.02 0.01 0.01
0.37 0.43 0.34 0.23 0.21 0.24 0.28 0.33 0.36 0.35 0.32 0.28 0.24 0.21 0.21 0.23 0.23 0.23 0.23 0.22 0.21 0.21 0.18 0.15 0.13 0.11 0.09 0.08 0.09 0.09 0.09 0.09 0.08 0.06 0.05 0.05 0.04 0.03 0.03 0.02 0.01 0.01 0.00
0.32 0.37 0.31 0.20 0.16 0.17 0.21 0.26 0.25 0.23 0.23 0.19 0.15 0.14 0.15 0.17 0.16 0.13 0.12 0.12 0.12 0.12 0.11 0.09 0.07 0.06 0.05 0.05 0.05 0.05 0.05 0.04 0.03 0.03 0.02 0.02 0.02 0.02 0.01 0.01 0.00 0.00 0.00